| time (UTC) | temp F | wind direction | speed MPH | gust MPH | rain 1hr in | rain 24hr in | rain mn in | humidity % | barometer mb |
| 20260906183326 | 83 | 355 | 6.0 | 16.0 | 0.00 | 0.00 | 0.00 | ||
| 20260906182827 | 83 | 357 | 11.0 | 16.0 | 0.00 | 0.00 | 0.00 | ||
| 20260906182327 | 83 | 354 | 9.0 | 16.0 | 0.00 | 0.00 | 0.00 | ||
| 20260906181828 | 83 | 354 | 6.0 | 16.0 | 0.00 | 0.00 | 0.00 | ||
| 20260906180822 | 83 | 0 | 7.0 | 11.0 | 0.00 | 0.00 | 0.00 | ||
| 20260906180321 | 83 | 336 | 6.0 | 12.0 | 0.00 | 0.00 | 0.00 | ||
| 20260906175328 | 83 | 351 | 7.0 | 13.0 | 0.00 | 0.00 | 0.00 | ||
| 20260906174831 | 83 | 359 | 6.0 | 14.0 | 0.00 | 0.00 | 0.00 | ||
| 20260906174334 | 83 | 358 | 7.0 | 20.0 | 0.00 | 0.00 | 0.00 | ||
| 20260906173832 | 83 | 0 | 8.0 | 20.0 | 0.00 | 0.00 | 0.00 | ||
| 20260906173333 | 83 | 353 | 7.0 | 18.0 | 0.00 | 0.00 | 0.00 | ||
| 20260906172834 | 83 | 0 | 8.0 | 17.0 | 0.00 | 0.00 | 0.00 | ||
| 20260906172334 | 83 | 359 | 7.0 | 20.0 | 0.00 | 0.00 | 0.00 | ||
| 20260906171836 | 84 | 358 | 10.0 | 21.0 | 0.00 | 0.00 | 0.00 | ||
| 20260906171338 | 84 | 354 | 11.0 | 22.0 | 0.00 | 0.00 | 0.00 | ||
| 20260906170830 | 84 | 349 | 13.0 | 22.0 | 0.00 | 0.00 | 0.00 | ||
| 20260906170333 | 84 | 359 | 9.0 | 17.0 | 0.00 | 0.00 | 0.00 | ||
| 20260906165835 | 84 | 0 | 8.0 | 17.0 | 0.00 | 0.00 | 0.00 | ||
| 20260906165314 | 84 | 358 | 7.0 | 18.0 | 0.00 | 0.00 | 0.00 | ||
| 20260906164820 | 84 | 358 | 6.0 | 18.0 | 0.00 | 0.00 | 0.00 | ||
| 20260906164341 | 84 | 354 | 8.0 | 15.0 | 0.00 | 0.00 | 0.00 | ||
| 20260906163831 | 84 | 359 | 7.0 | 12.0 | 0.00 | 0.00 | 0.00 | ||
| 20260906163317 | 84 | 359 | 5.0 | 12.0 | 0.00 | 0.00 | 0.00 | ||
| 20260906162819 | 84 | 0 | 7.0 | 12.0 | 0.00 | 0.00 | 0.00 | ||
| 20260906162318 | 84 | 359 | 6.0 | 12.0 | 0.00 | 0.00 | 0.00 | ||
| 20260906160818 | 84 | 0 | 7.0 | 14.0 | 0.00 | 0.00 | 0.00 | ||
| 20260906160320 | 84 | 358 | 9.0 | 14.0 | 0.00 | 0.00 | 0.00 | ||
| 20260906155328 | 84 | 358 | 7.0 | 14.0 | 0.00 | 0.00 | 0.00 | ||
| 20260906154833 | 84 | 358 | 5.0 | 16.0 | 0.00 | 0.00 | 0.00 | ||
| 20260906154326 | 83 | 359 | 4.0 | 16.0 | 0.00 | 0.00 | 0.00 | ||
| 20260906153828 | 83 | 354 | 7.0 | 11.0 | 0.00 | 0.00 | 0.00 | ||
| 20260906153330 | 83 | 359 | 5.0 | 10.0 | 0.00 | 0.00 | 0.00 | ||
| 20260906152834 | 83 | 0 | 6.0 | 10.0 | 0.00 | 0.00 | 0.00 | ||
| 20260906152320 | 83 | 357 | 6.0 | 10.0 | 0.00 | 0.00 | 0.00 | ||
| 20260906151820 | 83 | 359 | 2.0 | 10.0 | 0.00 | 0.00 | 0.00 | ||
| 20260906151325 | 83 | 359 | 2.0 | 10.0 | 0.00 | 0.00 | 0.00 | ||
| 20260906150816 | 83 | 358 | 6.0 | 9.0 | 0.00 | 0.00 | 0.00 | ||
| 20260906150318 | 83 | 0 | 5.0 | 9.0 | 0.00 | 0.00 | 0.00 | ||
| 20260906145819 | 82 | 358 | 4.0 | 7.0 | 0.00 | 0.00 | 0.00 | ||
| 20260906145321 | 82 | 0 | 3.0 | 7.0 | 0.00 | 0.00 | 0.00 | ||
| 20260906144325 | 82 | 0 | 2.0 | 7.0 | 0.00 | 0.00 | 0.00 | ||
| 20260906143818 | 82 | 0 | 3.0 | 7.0 | 0.00 | 0.00 | 0.00 | ||
| 20260906143321 | 82 | 359 | 2.0 | 5.0 | 0.00 | 0.00 | 0.00 | ||
| 20260906142822 | 82 | 0 | 2.0 | 6.0 | 0.00 | 0.00 | 0.00 | ||
| 20260906142322 | 82 | 0 | 3.0 | 8.0 | 0.00 | 0.00 | 0.00 | ||
| 20260906141843 | 82 | 0 | 5.0 | 8.0 | 0.00 | 0.00 | 0.00 | ||
| 20260906140328 | 81 | 354 | 3.0 | 7.0 | 0.00 | 0.00 | 0.00 | ||
| 20260906135333 | 81 | 358 | 3.0 | 8.0 | 0.00 | 0.00 | 0.00 | ||
| 20260906134833 | 81 | 0 | 2.0 | 7.0 | 0.00 | 0.00 | 0.00 | ||
| 20260906134337 | 81 | 0 | 2.0 | 9.0 | 0.00 | 0.00 | 0.00 | ||
| 20260906133830 | 81 | 0 | 5.0 | 9.0 | 0.00 | 0.00 | 0.00 | ||
| 20260906132836 | 81 | 345 | 4.0 | 7.0 | 0.00 | 0.00 | 0.00 | ||
| 20260906131332 | 81 | 356 | 4.0 | 7.0 | 0.00 | 0.00 | 0.00 | ||
| 20260906130816 | 81 | 0 | 3.0 | 8.0 | 0.00 | 0.00 | 0.00 | ||
| 20260906130318 | 81 | 33 | 4.0 | 8.0 | 0.00 | 0.00 | 0.00 | ||
| 20260906125818 | 81 | 0 | 3.0 | 9.0 | 0.00 | 0.00 | 0.00 | ||
| 20260906125319 | 81 | 359 | 6.0 | 9.0 | 0.00 | 0.00 | 0.00 | ||
| 20260906123820 | 80 | 0 | 2.0 | 6.0 | 0.00 | 0.00 | 0.00 | ||
| 20260906123327 | 80 | 30 | 2.0 | 8.0 | 0.00 | 0.00 | 0.00 | ||
| 20260906122827 | 80 | 359 | 3.0 | 8.0 | 0.00 | 0.00 | 0.00 | ||
| 20260906122329 | 80 | 353 | 3.0 | 5.0 | 0.00 | 0.00 | 0.00 | ||
| 20260906121827 | 80 | 0 | 3.0 | 5.0 | 0.00 | 0.00 | 0.00 | ||
| 20260906121330 | 80 | 358 | 1.0 | 5.0 | 0.00 | 0.00 | 0.00 | ||
| 20260906120819 | 80 | 0 | 2.0 | 5.0 | 0.00 | 0.00 | 0.00 | ||
| 20260906120320 | 80 | 0 | 2.0 | 4.0 | 0.00 | 0.00 | 0.00 | ||
| 20260906115822 | 80 | 359 | 1.0 | 4.0 | 0.00 | 0.00 | 0.00 | ||
| 20260906115323 | 80 | 357 | 1.0 | 2.0 | 0.00 | 0.00 | 0.00 | ||
| 20260906114824 | 80 | 125 | 0.0 | 2.0 | 0.00 | 0.00 | 0.00 | ||
| 20260906114326 | 80 | 94 | 1.0 | 2.0 | 0.00 | 0.00 | 0.00 | ||
| 20260906113836 | 80 | 100 | 1.0 | 3.0 | 0.00 | 0.00 | 0.00 | ||
| 20260906113336 | 80 | 141 | 1.0 | 3.0 | 0.00 | 0.00 | 0.00 | ||
| 20260906112820 | 80 | 356 | 1.0 | 2.0 | 0.00 | 0.00 | 0.00 | ||
| 20260906112322 | 80 | 340 | 1.0 | 2.0 | 0.00 | 0.00 | 0.00 | ||
| 20260906111824 | 80 | 344 | 0.0 | 3.0 | 0.00 | 0.00 | 0.00 | ||
| 20260906111345 | 80 | 0 | 2.0 | 4.0 | 0.00 | 0.00 | 0.00 | ||
| 20260906110816 | 80 | 0 | 2.0 | 4.0 | 0.00 | 0.00 | 0.00 | ||
| 20260906105833 | 80 | 0 | 3.0 | 5.0 | 0.00 | 0.00 | 0.00 | ||
| 20260906105334 | 80 | 359 | 2.0 | 5.0 | 0.00 | 0.00 | 0.00 | ||
| 20260906104835 | 80 | 0 | 3.0 | 6.0 | 0.00 | 0.00 | 0.00 | ||
| 20260906104337 | 80 | 344 | 2.0 | 6.0 | 0.00 | 0.00 | 0.00 | ||
| 20260906103330 | 80 | 0 | 2.0 | 3.0 | 0.00 | 0.00 | 0.00 | ||
| 20260906102832 | 80 | 0 | 0.0 | 4.0 | 0.00 | 0.00 | 0.00 | ||
| 20260906102332 | 80 | 0 | 1.0 | 4.0 | 0.00 | 0.00 | 0.00 | ||
| 20260906101833 | 80 | 0 | 1.0 | 3.0 | 0.00 | 0.00 | 0.00 | ||
| 20260906100827 | 80 | 0 | 1.0 | 4.0 | 0.00 | 0.00 | 0.00 | ||
| 20260906100332 | 80 | 0 | 0.0 | 4.0 | 0.00 | 0.00 | 0.00 | ||
| 20260906095337 | 81 | 340 | 2.0 | 4.0 | 0.00 | 0.00 | 0.00 | ||
| 20260906094834 | 81 | 351 | 1.0 | 4.0 | 0.00 | 0.00 | 0.00 | ||
| 20260906094335 | 81 | 0 | 0.0 | 2.0 | 0.00 | 0.00 | 0.00 | ||
| 20260906093828 | 81 | 0 | 0.0 | 3.0 | 0.00 | 0.00 | 0.00 | ||
| 20260906093329 | 81 | 0 | 2.0 | 3.0 | 0.00 | 0.00 | 0.00 | ||
| 20260906092831 | 81 | 0 | 1.0 | 2.0 | 0.00 | 0.00 | 0.00 | ||
| 20260906091818 | 82 | 0 | 1.0 | 4.0 | 0.00 | 0.00 | 0.00 | ||
| 20260906091340 | 82 | 0 | 1.0 | 6.0 | 0.00 | 0.00 | 0.00 | ||
| 20260906090833 | 82 | 0 | 3.0 | 6.0 | 0.00 | 0.00 | 0.00 | ||
| 20260906090334 | 82 | 0 | 3.0 | 6.0 | 0.00 | 0.00 | 0.00 | ||
| 20260906085816 | 82 | 359 | 2.0 | 5.0 | 0.00 | 0.00 | 0.00 | ||
| 20260906084826 | 82 | 359 | 3.0 | 5.0 | 0.00 | 0.00 | 0.00 | ||
| 20260906083822 | 82 | 0 | 1.0 | 4.0 | 0.00 | 0.00 | 0.00 | ||
| 20260906083324 | 82 | 0 | 1.0 | 4.0 | 0.00 | 0.00 | 0.00 | ||
| 20260906082328 | 82 | 0 | 3.0 | 6.0 | 0.00 | 0.00 | 0.00 | ||
| 20260906081828 | 82 | 0 | 4.0 | 6.0 | 0.00 | 0.00 | 0.00 | ||
| 20260906081331 | 82 | 0 | 2.0 | 5.0 | 0.00 | 0.00 | 0.00 | ||
| 20260906080823 | 82 | 0 | 3.0 | 5.0 | 0.00 | 0.00 | 0.00 | ||
| 20260906075830 | 82 | 358 | 2.0 | 4.0 | 0.00 | 0.00 | 0.00 | ||
| 20260906075332 | 82 | 0 | 0.0 | 3.0 | 0.00 | 0.00 | 0.00 | ||
| 20260906074833 | 82 | 0 | 0.0 | 3.0 | 0.00 | 0.00 | 0.00 | ||
| 20260906074332 | 82 | 0 | 1.0 | 3.0 | 0.00 | 0.00 | 0.00 | ||
| 20260906073825 | 82 | 0 | 0.0 | 2.0 | 0.00 | 0.00 | 0.00 | ||
| 20260906073326 | 82 | 0 | 1.0 | 3.0 | 0.00 | 0.00 | 0.00 | ||
| 20260906072832 | 82 | 0 | 0.0 | 4.0 | 0.00 | 0.00 | 0.00 | ||
| 20260906072333 | 82 | 0 | 2.0 | 4.0 | 0.00 | 0.00 | 0.00 | ||
| 20260906071834 | 83 | 0 | 0.0 | 3.0 | 0.00 | 0.00 | 0.00 | ||
| 20260906071336 | 83 | 0 | 1.0 | 3.0 | 0.00 | 0.00 | 0.00 | ||
| 20260906070829 | 83 | 0 | 0.0 | 4.0 | 0.00 | 0.00 | 0.00 | ||
| 20260906070329 | 83 | 0 | 1.0 | 4.0 | 0.00 | 0.00 | 0.00 | ||
| 20260906065828 | 83 | 0 | 1.0 | 3.0 | 0.00 | 0.00 | 0.00 | ||
| 20260906065330 | 83 | 0 | 1.0 | 2.0 | 0.00 | 0.00 | 0.00 | ||
| 20260906064834 | 83 | 0 | 0.0 | 0.0 | 0.00 | 0.00 | 0.00 | ||
| 20260906063830 | 84 | 0 | 0.0 | 2.0 | 0.00 | 0.00 | 0.00 | ||
| 20260906063332 | 84 | 0 | 0.0 | 3.0 | 0.00 | 0.00 | 0.00 | ||
| 20260906062834 | 84 | 0 | 1.0 | 3.0 | 0.00 | 0.00 | 0.00 | ||
| 20260906062320 | 84 | 0 | 0.0 | 3.0 | 0.00 | 0.00 | 0.00 | ||
| 20260906060819 | 85 | 0 | 1.0 | 2.0 | 0.00 | 0.00 | 0.00 | ||
| 20260906060321 | 85 | 0 | 0.0 | 2.0 | 0.00 | 0.00 | 0.00 | ||
| 20260906055824 | 86 | 0 | 1.0 | 2.0 | 0.00 | 0.00 | 0.00 | ||
| 20260906055326 | 86 | 0 | 0.0 | 3.0 | 0.00 | 0.00 | 0.00 | ||
| 20260906054826 | 86 | 0 | 0.0 | 3.0 | 0.00 | 0.00 | 0.00 | ||
| 20260906054329 | 86 | 0 | 0.0 | 0.0 | 0.00 | 0.00 | 0.00 | ||
| 20260906053326 | 87 | 0 | 0.0 | 0.0 | 0.00 | 0.00 | 0.00 | ||
| 20260906052828 | 87 | 0 | 0.0 | 3.0 | 0.00 | 0.00 | 0.00 | ||
| 20260906052332 | 87 | 0 | 0.0 | 3.0 | 0.00 | 0.00 | 0.00 | ||
| 20260906051337 | 88 | 0 | 1.0 | 3.0 | 0.00 | 0.00 | 0.00 | ||
| 20260906050831 | 88 | 0 | 1.0 | 3.0 | 0.00 | 0.00 | 0.00 | ||
| 20260906050331 | 88 | 0 | 0.0 | 3.0 | 0.00 | 0.00 | 0.00 | ||
| 20260906045816 | 88 | 0 | 1.0 | 3.0 | 0.00 | 0.00 | 0.00 | ||
| 20260906045320 | 88 | 0 | 1.0 | 2.0 | 0.00 | 0.00 | 0.00 | ||
| 20260906044824 | 89 | 0 | 1.0 | 4.0 | 0.00 | 0.00 | 0.00 | ||
| 20260906044345 | 89 | 0 | 1.0 | 5.0 | 0.00 | 0.00 | 0.00 | ||
| 20260906043322 | 89 | 0 | 1.0 | 4.0 | 0.00 | 0.00 | 0.00 | ||
| 20260906042822 | 89 | 0 | 1.0 | 4.0 | 0.00 | 0.00 | 0.00 | ||
| 20260906042323 | 89 | 0 | 1.0 | 4.0 | 0.00 | 0.00 | 0.00 | ||
| 20260906041827 | 89 | 0 | 2.0 | 4.0 | 0.00 | 0.00 | 0.00 | ||
| 20260906040828 | 89 | 0 | 2.0 | 6.0 | 0.00 | 0.00 | 0.00 | ||
| 20260906040331 | 90 | 0 | 1.0 | 4.0 | 0.00 | 0.00 | 0.00 | ||
| 20260906035830 | 90 | 0 | 2.0 | 5.0 | 0.00 | 0.00 | 0.00 | ||
| 20260906035332 | 90 | 0 | 2.0 | 5.0 | 0.00 | 0.00 | 0.00 | ||
| 20260906034816 | 90 | 0 | 2.0 | 6.0 | 0.00 | 0.00 | 0.00 | ||
| 20260906034338 | 90 | 356 | 4.0 | 6.0 | 0.00 | 0.00 | 0.00 | ||
| 20260906033828 | 90 | 0 | 2.0 | 6.0 | 0.00 | 0.00 | 0.00 | ||
| 20260906032835 | 90 | 0 | 3.0 | 7.0 | 0.00 | 0.00 | 0.00 | ||
| 20260906032335 | 90 | 0 | 2.0 | 7.0 | 0.00 | 0.00 | 0.00 | ||
| 20260906031817 | 91 | 0 | 2.0 | 7.0 | 0.00 | 0.00 | 0.00 | ||
| 20260906031340 | 91 | 0 | 2.0 | 8.0 | 0.00 | 0.00 | 0.00 | ||
| 20260906030335 | 91 | 0 | 2.0 | 8.0 | 0.00 | 0.00 | 0.00 | ||
| 20260906025817 | 91 | 0 | 2.0 | 8.0 | 0.00 | 0.00 | 0.00 | ||
| 20260906025318 | 91 | 0 | 3.0 | 8.0 | 0.00 | 0.00 | 0.00 | ||
| 20260906024821 | 91 | 0 | 3.0 | 9.0 | 0.00 | 0.00 | 0.00 | ||
| 20260906024342 | 92 | 0 | 5.0 | 11.0 | 0.00 | 0.00 | 0.00 | ||
| 20260906023822 | 92 | 0 | 5.0 | 11.0 | 0.00 | 0.00 | 0.00 | ||
| 20260906022828 | 92 | 0 | 3.0 | 11.0 | 0.00 | 0.00 | 0.00 | ||
| 20260906022328 | 93 | 357 | 6.0 | 11.0 | 0.00 | 0.00 | 0.00 | ||
| 20260906021828 | 93 | 0 | 7.0 | 10.0 | 0.00 | 0.00 | 0.00 | ||
| 20260906020825 | 93 | 0 | 5.0 | 15.0 | 0.00 | 0.00 | 0.00 | ||
| 20260906015827 | 94 | 0 | 7.0 | 14.0 | 0.00 | 0.00 | 0.00 | ||
| 20260906015327 | 94 | 359 | 5.0 | 15.0 | 0.00 | 0.00 | 0.00 | ||
| 20260906014828 | 94 | 0 | 8.0 | 19.0 | 0.00 | 0.00 | 0.00 | ||
| 20260906014331 | 95 | 359 | 7.0 | 19.0 | 0.00 | 0.00 | 0.00 | ||
| 20260906013825 | 95 | 0 | 10.0 | 17.0 | 0.00 | 0.00 | 0.00 | ||
| 20260906013326 | 95 | 359 | 6.0 | 18.0 | 0.00 | 0.00 | 0.00 | ||
| 20260906012827 | 96 | 0 | 11.0 | 19.0 | 0.00 | 0.00 | 0.00 | ||
| 20260906012327 | 96 | 349 | 11.0 | 20.0 | 0.00 | 0.00 | 0.00 | ||
| 20260906011830 | 96 | 0 | 12.0 | 20.0 | 0.00 | 0.00 | 0.00 | ||
| 20260906011331 | 97 | 357 | 12.0 | 19.0 | 0.00 | 0.00 | 0.00 | ||
| 20260906010822 | 97 | 0 | 8.0 | 21.0 | 0.00 | 0.00 | 0.00 | ||
| 20260906010322 | 97 | 357 | 11.0 | 21.0 | 0.00 | 0.00 | 0.00 | ||
| 20260906005822 | 97 | 0 | 11.0 | 18.0 | 0.00 | 0.00 | 0.00 | ||
| 20260906005322 | 98 | 354 | 8.0 | 19.0 | 0.00 | 0.00 | 0.00 | ||
| 20260906004842 | 98 | 359 | 9.0 | 22.0 | 0.00 | 0.00 | 0.00 | ||
| 20260906004333 | 98 | 359 | 12.0 | 22.0 | 0.00 | 0.00 | 0.00 | ||
| 20260906003816 | 97 | 0 | 9.0 | 17.0 | 0.00 | 0.00 | 0.00 | ||
| 20260906003317 | 97 | 359 | 7.0 | 19.0 | 0.00 | 0.00 | 0.00 | ||
| 20260906002820 | 97 | 0 | 13.0 | 19.0 | 0.00 | 0.00 | 0.00 | ||
| 20260906001825 | 97 | 0 | 7.0 | 17.0 | 0.00 | 0.00 | 0.00 | ||
| 20260906000822 | 97 | 347 | 9.0 | 20.0 | 0.00 | 0.00 | 0.00 | ||
| 20260906000329 | 97 | 0 | 8.0 | 18.0 | 0.00 | 0.00 | 0.00 | ||
| 20260905235829 | 97 | 0 | 8.0 | 19.0 | 0.00 | 0.00 | 0.00 | ||
| 20260905235330 | 97 | 0 | 6.0 | 19.0 | 0.00 | 0.00 | 0.00 | ||
| 20260905234334 | 97 | 0 | 8.0 | 20.0 | 0.00 | 0.00 | 0.00 | ||
| 20260905233827 | 97 | 0 | 5.0 | 17.0 | 0.00 | 0.00 | 0.00 | ||
| 20260905233329 | 97 | 0 | 9.0 | 18.0 | 0.00 | 0.00 | 0.00 | ||
| 20260905232332 | 97 | 358 | 8.0 | 22.0 | 0.00 | 0.00 | 0.00 | ||
| 20260905231834 | 97 | 359 | 12.0 | 23.0 | 0.00 | 0.00 | 0.00 | ||
| 20260905231335 | 98 | 358 | 7.0 | 15.0 | 0.00 | 0.00 | 0.00 | ||
| 20260905230329 | 98 | 0 | 9.0 | 22.0 | 0.00 | 0.00 | 0.00 | ||
| 20260905225830 | 98 | 0 | 10.0 | 20.0 | 0.00 | 0.00 | 0.00 | ||
| 20260905224835 | 98 | 359 | 14.0 | 24.0 | 0.00 | 0.00 | 0.00 | ||
| 20260905224339 | 98 | 0 | 7.0 | 18.0 | 0.00 | 0.00 | 0.00 | ||
| 20260905223817 | 98 | 0 | 5.0 | 18.0 | 0.00 | 0.00 | 0.00 | ||
| 20260905222820 | 97 | 354 | 7.0 | 17.0 | 0.00 | 0.00 | 0.00 | ||
| 20260905222321 | 97 | 359 | 10.0 | 21.0 | 0.00 | 0.00 | 0.00 | ||
| 20260905221821 | 97 | 0 | 10.0 | 21.0 | 0.00 | 0.00 | 0.00 | ||
| 20260905221343 | 97 | 0 | 12.0 | 20.0 | 0.00 | 0.00 | 0.00 | ||
| 20260905220317 | 97 | 357 | 11.0 | 23.0 | 0.00 | 0.00 | 0.00 | ||
| 20260905215819 | 97 | 0 | 10.0 | 19.0 | 0.00 | 0.00 | 0.00 | ||
| 20260905215320 | 97 | 359 | 12.0 | 22.0 | 0.00 | 0.00 | 0.00 | ||
| 20260905214820 | 97 | 358 | 12.0 | 23.0 | 0.00 | 0.00 | 0.00 | ||
| 20260905214342 | 97 | 356 | 12.0 | 26.0 | 0.00 | 0.00 | 0.00 | ||
| 20260905213835 | 97 | 359 | 15.0 | 26.0 | 0.00 | 0.00 | 0.00 | ||
| 20260905213317 | 97 | 0 | 13.0 | 26.0 | 0.00 | 0.00 | 0.00 | ||
| 20260905212825 | 98 | 359 | 12.0 | 26.0 | 0.00 | 0.00 | 0.00 | ||
| 20260905212325 | 98 | 358 | 15.0 | 24.0 | 0.00 | 0.00 | 0.00 | ||
| 20260905211825 | 98 | 358 | 13.0 | 28.0 | 0.00 | 0.00 | 0.00 | ||
| 20260905211327 | 98 | 358 | 10.0 | 28.0 | 0.00 | 0.00 | 0.00 | ||
| 20260905210819 | 98 | 0 | 8.0 | 18.0 | 0.00 | 0.00 | 0.00 | ||
| 20260905210323 | 98 | 355 | 10.0 | 22.0 | 0.00 | 0.00 | 0.00 | ||
| 20260905205825 | 98 | 0 | 11.0 | 22.0 | 0.00 | 0.00 | 0.00 | ||
| 20260905205323 | 98 | 352 | 10.0 | 21.0 | 0.00 | 0.00 | 0.00 | ||
| 20260905204824 | 98 | 359 | 6.0 | 25.0 | 0.00 | 0.00 | 0.00 | ||
| 20260905204344 | 98 | 357 | 11.0 | 25.0 | 0.00 | 0.00 | 0.00 | ||
| 20260905203817 | 98 | 0 | 8.0 | 14.0 | 0.00 | 0.00 | 0.00 | ||
| 20260905203319 | 98 | 0 | 6.0 | 16.0 | 0.00 | 0.00 | 0.00 | ||
| 20260905202821 | 98 | 0 | 10.0 | 16.0 | 0.00 | 0.00 | 0.00 | ||
| 20260905202326 | 98 | 0 | 7.0 | 14.0 | 0.00 | 0.00 | 0.00 | ||
| 20260905201825 | 97 | 359 | 8.0 | 13.0 | 0.00 | 0.00 | 0.00 | ||
| 20260905200822 | 97 | 0 | 6.0 | 13.0 | 0.00 | 0.00 | 0.00 | ||
| 20260905195826 | 96 | 349 | 5.0 | 17.0 | 0.00 | 0.00 | 0.00 | ||
| 20260905194336 | 96 | 0 | 8.0 | 17.0 | 0.00 | 0.00 | 0.00 | ||
| 20260905193830 | 96 | 0 | 8.0 | 14.0 | 0.00 | 0.00 | 0.00 | ||
| 20260905193332 | 95 | 0 | 4.0 | 15.0 | 0.00 | 0.00 | 0.00 | ||
| 20260905192833 | 95 | 0 | 6.0 | 12.0 | 0.00 | 0.00 | 0.00 | ||
| 20260905192333 | 95 | 359 | 5.0 | 13.0 | 0.00 | 0.00 | 0.00 | ||
| 20260905191834 | 94 | 359 | 5.0 | 14.0 | 0.00 | 0.00 | 0.00 | ||
| 20260905191335 | 94 | 0 | 7.0 | 18.0 | 0.00 | 0.00 | 0.00 | ||
| 20260905190826 | 93 | 357 | 7.0 | 18.0 | 0.00 | 0.00 | 0.00 | ||
| 20260905190328 | 93 | 0 | 3.0 | 11.0 | 0.00 | 0.00 | 0.00 | ||
| 20260905185833 | 93 | 4 | 6.0 | 15.0 | 0.00 | 0.00 | 0.00 | ||
| 20260905185335 | 92 | 0 | 9.0 | 15.0 | 0.00 | 0.00 | 0.00 | ||
| 20260905184836 | 92 | 351 | 5.0 | 15.0 | 0.00 | 0.00 | 0.00 | ||
| 20260905184339 | 92 | 0 | 5.0 | 15.0 | 0.00 | 0.00 | 0.00 | ||
| 20260905183830 | 91 | 357 | 8.0 | 15.0 | 0.00 | 0.00 | 0.00 |